MINOTAUR 4 R/B, 45877

Orbit data source: Space-Track

MINOTAUR 4 R/B, 45877 is space debris in LEO originally from a launch on Wed, 15 Jul 2020 UTC launched from the Wallops Island (WLPIS). Debris objects in space refer to the collection of defunct objects orbiting the Earth. Examples of debris include non-operational satellites, rocket bodies, and fragments generated from explosions, collisions, or faulty payload assembly.

Loading next visibility...
Identifier
45877, 2020-046E
Orbit
LEO
Country
Flag of USUS
Related business
Manufacturer
NGIS FSG
Mission
Spacecraft
Bus & Motor
ORION 38, Unknown motor
Mass
~500 kg wet, ~500 kg dry
Launch date (UTC)
2020-07-15 (5 years ago)
Launch vehicle
Unknown
Launch site
Wallops Island (WLPIS)
Object type
Payload
Rocket body
Debris
Shape & HBR
Cyl + 1 Nozzle, 0.7 m
Radar Cross Section
1.381 m², Large (>1 m²)

Expand to show TLE details & history
Last TLE update: 13 hours ago

TLE from 13 hours ago
0 MINOTAUR 4 R/B
1 45877U 20046E   25259.56151235  .00001717  00000-0  13745-3 0  9993
2 45877  53.9811 351.6667 0006961 343.3705  16.7066 15.05441546207685
Epoch: 2025-09-16T13:28Z
TLE epoch observation values (Epoch: 2025-09-16T13:28:34.667Z)
Latitude
-0.00001°
Longitude
153.7722°
Altitude
546.509 km
Speed
7.592 km/s
True Right ascension
23h 26m 40s
True Declination
0° 00' 00"
Sunlit
Object was in full shadow at epoch
Visualization orbit readout
Latitude
Unknown
Longitude
Unknown
Altitude
Unknown
Speed
Unknown
Apparent Right ascension
Unknown
Apparent Declination
Unknown
Sunlit
N/A
Visualization observer readout
Local Sidereal Time
18:59:42
Azimuth
Unknown
Elevation
Unknown
Doppler factor
Unknown
Orbital elements
Apogee altitude
555.097 km
Perigee altitude
545.451 km
Semi-major axis
6,928.411 km
Eccentricity
0.0007
Inclination
53.9811°
RAAN
351.6667°
Arg. of periapsis
343.3705°
True anomaly
16.72955°
Mean anomaly
16.7066°
Eccentric anomaly
16.71807°
Mean motion
3.76351 °/min
Orbital period
95.66 mins
BSTAR
0.00013745
Loading maneuver chart data...
Computing Atmospheric mass density...
Loading historical data...
Loading historical data...
Loading historical data...
Loading historical data...
Loading historical data...
Loading historical data...
Loading historical data...

Documentation

Showing up to 5 results
|